EHI
0 0 0 0 0 0 0 0 0 0 0 0 0 0 0 0 0 0 0 0 0 0 0 0 0 0 0 0 0 0 0 0 0 0 0 0 0 0 0 0 0 0 0
0 0 0 0 0 0 0 0 0 0 0 0 0 0 0 0 0 0 0 0 0 0 0 0 0 0 0 0 0 0 0 0 0 0 0 0 0 0 0 0 0 0 0
0 0 0 0 0 0 0 0 0 0 0 0 0 0 0 0 0 0 0 0 0 0 0 0 0 0 0 0 0 0 0 0 0 0 0 0 0 0 0 0 0 0 0
0 0 0 0 0 0 0 0 0 0 0 0 0 0 0 0 0 0 0 0 0 0 0 0 0 0 0 0 0 0 0 0 0 0 0 0 0 0 0 0 0 0 0
0 0 0 0 0 0 0 0 0 0 0 0 0 0 0 0 0 0 0 0 0 0 0 0 0 0 0 0 0 0 0 0 0 0 0 0 0 0 0 0 0 0 0
0 0 0 0 0 0 0 0 0 0 0 0 0 0 0 0 0 0 0 0 0 0 0 0 0 0 0 0 0 0 0 0 0 0 0 0 0 0 0 0 0 0 0
0 0 0 0 0 0 0 0 0 0 0 0 0 0 0 0 0 0 0 0 0 0 0 0 0 0 0 0 0 0 0 0 0 0 0 0 0 0 0 0 0 0 0
0 0 0 0 0 0 0 0 0 0 0 0 0 0 0 0 0 0 0 0 0 0 0 0 0 0 0 0 0 0 0 0 0 0 0 0 0 0 0 0 0 0 0
0 0 0 0 0 0 0 0 0 0 0 0 0 0 0 0 0 0 0 0 0 0 0 0 0 0 0 0 0 0 0 0 0 0 0 0 0 0 0 0 0 0 0
0 0 0 0 0 0 0 0 0 0 0 0 0 0 0 0 0 0 0 0 0 0 0 0 0 0 0 0 0 0 0 0 0 0 0 0 0 0 0 0 0 0 0
0 0 0 0 0 0 0 0 0 0 0 0 0 0 0 0 0 0 0 0 0 0 0 0 0 0 0 0 0 0 0 0 0 0 0 0 0 0 0 0 0 0 0
0 0 0 0 0 0 0 0 0 0 0 0 0 0 0 0 0 0 0 0 0 0 0 0 0 0 0 0 0 0 0 0 0 0 0 0 0 0 0 0 0 0 0
0 0 0 0 0 0 0 0 0 0 0 0 0 0 0 0 0 0 0 0 0 0 0 0 0 0 0 0 0 0 0 0 0 0 0 0 0 0 0 0 0 0 0
0 0 0 0 0 0 0 0 0 0 0 0 0 0 0 0 0 0 0 0 0 0 0 0 0 0 0 0 0 0 0 0 0 0 0 0 0 0 0 0 0 0 0
0 0 0 0 0 0 0 0 0 0 0 0 0 0 0 0 0 0 0 0 0 0 0 0 0 0 0 0 0 0 0 0 0 0 0 0 0 0 0 0 0 0 0
0 0 0 0 0 0 0 0 0 0 0 0 0 0 0 0 0 0 0 0 0 0 0 0 0 0 0 0 0 0 0 0 0 0 0 0 0 0 0 0 0 0 0
0 0 0 0 0 0 0 0 0 0 0 0 0 0 0 0 0 0 0 0 0 0 0 0 0 0 0 0 0 0 0 0 0 0 0 0 0 0 0 0 0 0 0
0 0 0 0 0 0 0 0 0 0 0 0 0 0 0 0 0 0 0 0 0 0 0 0 0 0 0 0 0 0 0 0 0 0 0 0 0 0 0 0 0 0 0
0 0 0 0 0 0 0 0 0 0 0 0 0 0 0 0 0 0 0 0 0 0 0 0 0 0 0 0 0 0 0 0 0 0 0 0 0 0 0 0 0 0 0
0 0 0 0 0 0 0 0 0 0 0 0 0 0 0 0 0 0 0 0 0 0 0 0 0 0 0 0 0 0 0 0 0 0 0 0 0 0 0 0 0 0 0
0 0 0 0 0 0 0 0 0 0 0 0 0 0 0 0 0 0 0 0 0 0 0 0 0 0 0 0 0 0 0 0 0 0 0 0 0 0 0 0 0 0 0
0 0 0 0 0 0 0 0 0 0 0 0 0 0 0 0 0 0 0 0 0 0 0 0 0 0 0 0 0 0 0 0 0 0 0 0 0 0 0 0 0 0 0
0 0 0 0 0 0 0 0 0 0 0 0 0 0 0 0 0 0 0 0 0 0 0 0 0 0 0 0 0 0 0 0 0 0 0 0 0 0 0 0 0 0 0
0 0 0 0 0 0 0 0 0 0 0 0 0 0 0 0 0 0 0 0 0 0 0 0 0 0 0 0 0 0 0 0 0 0 0 0 0 0 0 0 0 0 0
0 0 0 0 0 0 0 0 0 0 0 0 0 0 0 0 0 0 0 0 0 0 0 0 0 0 0 0 0 0 0 0 0 0 0 0 0 0 0 0 0 0 0
0 0 0 0 0 0 0 0 0 0 0 0 0 0 0 0 0 0 0 0 0 0 0 0 0 0 0 0 0 0 0 0 0 0 0 0 0 0 0 0 0 0 0
Wind_Speed
15 16 15 15 16 15 13 14 13 11 12 13 13 13 12 12 11 10 10 9 10 8 7 7 8 6 5 4 4 3 4 4 5 4 2 1 1 2 3 3 3 3 5
12 13 15 14 14 14 14 14 13 13 12 13 12 12 12 12 12 12 11 10 10 10 9 8 8 5 6 5 4 5 4 4 4 5 2 2 2 2 3 3 4 4 4
10 11 13 13 14 15 14 13 13 13 12 12 12 13 13 12 12 12 11 10 10 10 9 9 8 7 7 5 5 5 4 3 3 3 3 1 1 1 2 3 4 3 5
8 10 12 13 14 14 13 13 13 13 13 13 12 12 12 11 11 10 10 9 9 8 8 8 8 8 8 7 6 5 4 3 2 2 2 2 1 1 1 3 4 4 5
8 9 11 11 11 11 11 12 12 12 12 12 11 10 10 10 10 11 10 9 9 8 7 7 7 8 8 7 5 5 4 3 2 2 2 1 1 2 2 2 3 4 4
7 8 8 9 9 10 11 11 11 11 11 11 11 11 11 9 12 15 12 9 8 8 7 6 6 7 7 8 7 6 6 5 4 2 2 2 3 2 2 2 2 3 4
6 6 7 9 9 10 10 10 11 11 11 11 11 11 11 11 14 16 14 9 8 8 7 6 5 5 7 5 5 6 4 4 5 4 3 3 2 2 1 2 2 3 4
5 5 6 8 8 8 9 10 10 9 10 10 10 10 10 10 15 15 15 9 7 6 7 7 7 6 6 7 5 4 3 2 2 2 3 2 1 1 1 1 2 3 3
4 5 6 8 9 9 9 9 8 9 8 8 9 10 10 10 14 15 14 7 6 6 5 6 7 7 9 10 7 5 4 2 2 3 3 2 3 2 2 2 2 2 3
4 5 6 8 9 9 9 8 6 7 8 8 7 8 9 9 13 16 15 7 7 5 4 5 8 8 11 11 7 6 5 3 3 2 3 3 3 3 3 1 0 1 2
2 3 5 7 8 8 7 6 7 7 7 7 8 6 7 9 13 16 16 8 8 7 5 5 5 10 11 11 8 5 6 5 4 3 2 2 2 2 2 1 0 1 1
2 4 5 6 6 6 8 7 7 8 8 8 7 6 5 7 10 13 15 12 10 8 6 5 6 11 11 10 7 7 9 7 3 3 2 1 1 1 1 2 2 2 2
2 4 5 6 6 7 8 8 7 7 7 6 6 6 5 4 7 12 14 14 12 7 6 10 11 12 11 8 8 9 7 4 3 2 1 1 0 0 1 2 2 3 3
3 4 5 6 6 6 6 7 7 7 7 7 7 6 6 5 6 7 7 8 10 8 7 10 12 12 8 7 7 5 3 3 3 2 2 1 1 1 1 1 2 3 3
3 4 5 5 6 5 4 4 5 5 7 9 7 7 8 7 8 12 10 8 8 8 9 6 5 5 4 3 3 3 3 3 3 2 2 1 1 1 1 1 1 2 2
3 4 4 4 4 4 5 3 3 4 8 9 9 8 6 8 13 14 15 15 16 18 10 6 6 5 5 5 4 3 2 2 2 2 2 2 1 1 0 1 1 1 2
3 4 3 4 5 5 5 5 4 5 6 8 10 11 11 14 15 15 16 17 17 16 7 6 6 6 5 5 4 4 3 3 3 3 2 2 1 1 0 1 1 2 2
3 4 4 4 4 5 5 5 5 6 5 3 6 11 13 14 15 16 17 14 9 7 5 6 6 6 5 5 5 4 3 3 3 2 2 2 1 1 0 0 1 1 2
2 3 3 4 4 4 4 5 5 5 5 5 4 6 11 13 14 15 14 7 8 6 5 5 5 5 5 5 5 4 4 4 3 3 2 2 2 1 1 0 1 2 2
2 4 4 4 4 4 5 5 5 6 5 5 6 6 7 7 7 7 5 5 6 6 6 6 5 5 5 5 5 5 4 4 4 3 2 2 2 1 1 1 0 1 1
2 4 5 4 4 4 5 5 5 6 5 5 5 6 10 7 7 7 6 5 6 6 6 6 6 6 6 5 5 5 5 4 4 3 3 2 2 1 1 1 0 0 1
2 3 3 4 4 4 4 4 5 5 6 6 5 6 10 5 5 6 5 5 5 5 6 6 6 5 6 6 6 6 5 5 4 4 3 3 2 2 1 1 0 0 1
3 3 3 4 4 5 4 4 5 5 6 6 6 6 5 5 5 5 5 5 5 5 5 6 6 5 5 4 5 6 6 6 5 5 5 4 3 2 2 1 1 0 1
3 4 4 4 4 4 5 5 5 5 6 6 6 6 5 5 5 6 6 6 5 5 5 5 6 7 8 6 4 4 4 5 5 5 6 5 4 3 2 2 1 1 0
4 4 4 4 4 5 5 5 5 5 6 6 6 5 5 5 6 6 6 6 7 6 7 6 5 7 9 8 6 5 8 9 8 6 5 5 5 4 3 2 2 1 1
4 4 4 4 4 5 5 5 5 5 5 5 5 5 6 6 6 6 6 6 7 6 6 6 7 8 8 7 8 9 11 10 10 10 6 5 5 4 3 2 2 2 2
Wind_Direction
198 198 199 201 199 196 196 196 195 189 184 185 187 188 190 191 189 191 196 190 196 200 196 200 210 200 201 203 198 199 206 202 243 266 256 274 274 291 310 307 298 295 305
200 199 199 198 196 196 198 196 191 188 187 187 184 187 190 191 190 193 196 194 197 200 201 201 209 198 204 202 199 207 213 208 222 261 274 273 271 285 303 307 312 311 301
197 196 196 194 194 196 198 192 188 187 185 183 183 188 191 191 192 195 195 195 198 201 199 201 204 195 206 204 204 211 213 209 210 237 266 269 283 316 315 308 307 303 307
194 195 195 196 196 196 194 189 187 186 184 185 187 190 190 189 190 191 190 193 195 198 198 200 199 197 205 202 204 208 201 196 199 226 259 278 292 318 315 307 312 314 312
190 195 198 195 192 189 187 186 184 184 185 184 183 185 185 186 189 187 187 189 190 192 194 197 197 194 198 195 192 191 183 187 190 215 248 284 289 310 297 292 299 313 305
192 196 192 185 184 185 185 181 179 181 181 180 184 184 186 189 185 182 181 185 186 187 188 187 183 184 188 188 186 179 175 181 191 195 218 248 265 268 282 304 310 329 309
193 188 184 179 181 183 178 175 179 180 178 181 184 183 187 187 178 177 177 178 181 185 182 177 173 173 172 171 169 159 165 168 173 175 198 227 241 247 260 290 289 292 279
187 182 178 176 176 173 174 178 179 176 179 182 183 183 183 183 175 175 171 174 175 179 179 176 173 170 168 158 150 146 148 159 170 169 182 203 209 211 200 247 275 293 288
183 182 179 175 172 171 175 177 175 172 175 177 177 178 180 180 173 169 163 167 169 173 171 169 167 168 167 155 149 147 140 133 101 110 96 78 61 51 63 58 9 347 312
198 190 180 173 171 175 176 171 163 165 169 166 169 175 177 176 169 165 161 163 164 164 158 163 167 166 165 159 159 159 163 170 139 105 73 54 49 45 49 69 186 321 311
190 175 171 169 169 168 163 158 155 154 157 162 164 168 172 170 166 165 164 167 166 161 160 163 167 164 162 161 160 167 167 149 141 130 108 71 46 34 17 357 314 226 258
161 164 164 158 154 153 152 153 154 156 159 159 157 155 158 160 163 167 166 166 160 158 162 160 158 157 156 155 155 147 137 127 124 118 107 80 33 351 335 334 332 323 268
156 164 160 152 153 157 157 156 155 159 161 162 160 160 157 153 159 162 161 160 157 151 149 149 147 147 145 146 143 139 133 129 131 129 138 164 245 297 357 355 353 351 340
170 165 158 156 153 154 156 159 161 166 164 162 163 163 157 155 155 155 153 150 147 142 137 137 134 131 127 126 129 129 128 139 139 146 150 133 94 58 21 2 347 346 348
170 164 160 159 155 153 150 160 166 177 175 168 170 168 165 170 174 162 155 155 155 148 135 124 124 132 134 128 122 120 122 127 122 121 126 119 103 63 357 350 360 359 344
174 168 162 156 152 148 140 117 105 150 157 161 164 164 162 157 155 157 155 152 149 145 135 142 149 153 155 155 150 141 137 139 137 134 135 138 148 163 331 345 356 352 324
184 172 165 160 157 155 153 151 137 106 119 140 149 152 152 153 155 155 152 150 151 148 142 152 157 160 160 157 157 156 158 152 142 141 145 151 151 158 188 338 346 341 327
185 173 170 163 158 160 159 156 153 153 146 129 139 148 149 151 153 153 151 144 150 154 152 156 160 161 159 158 156 153 147 144 141 142 145 149 150 158 180 289 309 319 320
191 170 162 154 152 155 153 149 146 145 147 145 136 140 145 146 148 154 154 157 160 162 159 156 155 155 155 154 152 152 153 154 151 148 150 154 160 162 180 257 295 330 352
189 170 165 156 154 155 156 154 153 152 153 156 156 153 147 144 150 158 163 157 156 157 157 156 154 152 151 153 153 151 150 151 152 150 154 156 164 170 178 196 240 297 308
174 163 159 155 161 164 163 163 161 159 160 160 158 163 163 159 162 163 165 165 162 158 157 155 154 153 153 154 153 152 153 155 157 157 159 162 165 168 177 184 207 303 328
171 167 162 160 161 163 160 159 158 158 157 156 153 157 161 155 157 160 162 158 152 150 150 150 152 156 160 161 159 157 158 160 162 161 161 162 165 163 156 143 104 36 354
162 156 156 156 155 157 157 158 159 159 158 160 157 156 159 160 161 158 154 149 145 144 142 144 146 149 149 152 156 159 164 170 171 166 162 162 162 162 156 151 142 103 352
159 160 160 156 154 159 162 163 162 159 158 158 158 160 161 161 156 150 146 143 142 142 142 145 149 152 149 146 146 150 154 155 154 159 159 156 154 152 148 144 143 140 128
163 163 162 162 162 162 161 161 160 158 158 158 158 157 154 153 150 146 145 143 143 143 142 139 141 146 149 149 150 155 159 155 151 145 146 144 144 146 147 143 137 124 94
163 162 162 161 163 165 164 162 160 157 156 156 154 153 153 151 148 145 145 145 143 140 139 138 141 143 145 147 152 156 154 153 150 145 138 138 140 142 139 132 127 115 110